LRBV Weather Reports


time (UTC)temp
C
wind
direction
speed
KPH
gust
KPH
rain 1hr
cm
rain 24hr
cm
rain mn
cm
humidity
%
barometer
mb
20260503231851 7 220 12.9 0.0 0.00 0.00 0.00 66 1018.0
20260503230402 7 220 12.9 0.0 0.00 0.00 0.00 66 1018.0
20260503224847 7 220 12.9 0.0 0.00 0.00 0.00 66 1018.0
20260503223359 7 220 12.9 0.0 0.00 0.00 0.00 66 1018.0
20260503221907 7 220 14.5 0.0 0.00 0.00 0.00 61 1019.0
20260503220432 7 220 14.5 0.0 0.00 0.00 0.00 61 1019.0
20260503214854 6 220 11.3 0.0 0.00 0.00 0.00 66 1019.0
20260503213350 6 220 11.3 0.0 0.00 0.00 0.00 66 1019.0
20260503211851 6 240 12.9 0.0 0.00 0.00 0.00 71 1019.0
20260503210350 6 240 12.9 0.0 0.00 0.00 0.00 71 1019.0
20260503204857 7 250 4.8 0.0 0.00 0.00 0.00 66 1019.0
20260503203512 7 250 4.8 0.0 0.00 0.00 0.00 66 1019.0
20260503201851 7 0 0.0 0.0 0.00 0.00 0.00 61 1019.0
20260503200400 7 0 0.0 0.0 0.00 0.00 0.00 61 1019.0
20260503194916 7 320 9.7 0.0 0.00 0.00 0.00 57 1019.0
20260503193514 7 320 9.7 0.0 0.00 0.00 0.00 57 1019.0
20260503191848 8 290 12.9 0.0 0.00 0.00 0.00 50 1019.0
20260503190351 8 290 12.9 0.0 0.00 0.00 0.00 50 1019.0
20260503185012 10 270 8.0 0.0 0.00 0.00 0.00 47 1019.0
20260503183350 10 270 8.0 0.0 0.00 0.00 0.00 47 1019.0
20260503181850 10 260 9.7 0.0 0.00 0.00 0.00 50 1018.0
20260503180350 10 260 9.7 0.0 0.00 0.00 0.00 50 1018.0
20260503174910 11 260 8.0 0.0 0.00 0.00 0.00 44 1018.0
20260503173415 11 260 8.0 0.0 0.00 0.00 0.00 44 1018.0
20260503171850 12 280 12.9 0.0 0.00 0.00 0.00 41 1018.0
20260503170351 12 280 12.9 0.0 0.00 0.00 0.00 41 1018.0
20260503150350 13 3.2 0.0 0.00 0.00 0.00 29 1019.0
20260503130351 12 190 12.9 0.0 0.00 0.00 0.00 31 1020.0
20260503110411 11 330 11.3 0.0 0.00 0.00 0.00 35 1022.0
20260503090411 8 4.8 0.0 0.00 0.00 0.00 40 1023.0
20260503080401 7 4.8 0.0 0.00 0.00 0.00 57 1023.0
20260503071849 5 3.2 0.0 0.00 0.00 0.00 87 1023.0
20260503070351 5 3.2 0.0 0.00 0.00 0.00 87 1023.0
20260503054850 1 1.6 0.0 0.00 0.00 0.00 100 1023.0
20260503053350 1 1.6 0.0 0.00 0.00 0.00 100 1023.0
20260503050350 0 0 0.0 0.0 0.00 0.00 0.00 100 1023.0
20260503043351 -1 3.2 0.0 0.00 0.00 0.00 100 1023.0
20260503041850 -1 0 0.0 0.0 0.00 0.00 0.00 93 1022.0
20260503040413 -1 0 0.0 0.0 0.00 0.00 0.00 93 1022.0
20260503033350 -1 3.2 0.0 0.00 0.00 0.00 93 1022.0
20260503030350 -2 3.2 0.0 0.00 0.00 0.00 100 1022.0
20260503023351 -2 240 3.2 0.0 0.00 0.00 0.00 100 1022.0
20260503020350 -2 3.2 0.0 0.00 0.00 0.00 100 1022.0
20260503013350 -1 250 4.8 0.0 0.00 0.00 0.00 100 1022.0
20260503010351 -1 250 4.8 0.0 0.00 0.00 0.00 100 1022.0
20260503003350 -1 3.2 0.0 0.00 0.00 0.00 100 1022.0
20260503000350 0 220 4.8 0.0 0.00 0.00 0.00 93 1022.0
20260502234850 0 270 4.8 0.0 0.00 0.00 0.00 93 1022.0
20260502233350 0 270 4.8 0.0 0.00 0.00 0.00 93 1022.0